Content
SEND FEEDBACK

Daily
Averages
Monthly
Summary
United Kingdom

LEUCHARS, SCOTLAND


Home > Europe > United Kingdom > Scotland
Elevation: 39 feet     Latitude: 56 23N     Longitude: 002 52W

WEATHER
 
SELECT A DAY
Number of Records: 176,605;   Date Range: 7/1/96 - 7/8/14
 
SHARE

PRINT THIS DATA

[ ← Previous Day ]
WEATHER ALMANAC - MARCH 15, 2013
[ Next Day → ]
[ °C ]   °F
Weather ElementAverageHighLow
Temperature40.8 °F48.2 °F (3:50 pm)29 °F (11:50 pm)
Dewpoint35.3 °F39.2 °F (12:50 pm)26.6 °F (10:50 pm)
Humidity79.5 %93 % (9:50 pm)64 % (11:50 am)
Barometer29.41 in29.53 in (1:50 am)29.36 in (11:50 am)
Wind Speed8.8 mph16.1 mph (1:50 am)
Weather ElementAverage
Visibility11.7 mi
Wind DirectionWSW (238.7 °)

Weather ElementTotal
Precipitation---
Heating Degree Days26.4 (Base 65)
Averaged from 30 records on March 15, 2013
WEATHER CONDITIONS BREAKOUT
WIND DIRECTION BREAKOUT
WEATHER BY HOUR - MARCH 15, 2013
[ °C ]   °F
Local TimeTemperatureDewpointHumidityBarometerVisibilityWind DirectionWind SpeedGust SpeedPrecipitationEventsConditions
1:50 AM41.0 °F35.6 °F81 %29.53 in6.2 miSW (230°)16.1 mphMostly Cloudy
2:50 AM40.0 °F36.0 °F79 %29.51 in16.0 miSW (230°)15.0 mphMostly Cloudy
2:50 AM41.0 °F35.6 °F81 %29.50 in6.2 miSW (230°)15.0 mphMostly Cloudy
3:50 AM41.0 °F35.6 °F81 %29.47 in6.2 miSW (220°)15.0 mphMostly Cloudy
4:50 AM39.2 °F35.6 °F87 %29.44 in6.2 miSSW (210°)10.4 mphMostly Cloudy
5:50 AM39.0 °F35.0 °F81 %29.44 in19.0 miSW (230°)5.8 mphPartly Cloudy
5:50 AM39.2 °F35.6 °F87 %29.44 in6.2 miSW (230°)5.8 mphMostly Cloudy
6:50 AM41.0 °F35.6 °F81 %29.42 in6.2 miSW (220°)12.7 mphMostly Cloudy
7:50 AM41.0 °F35.6 °F81 %29.42 in6.2 miSSW (210°)13.8 mphRainLight Rain
8:50 AM43.0 °F36.0 °F70 %29.41 in25.0 miSSW (210°)13.8 mphRainLight Rain
9:50 AM44.6 °F37.4 °F76 %29.39 in6.2 miSSW (200°)10.4 mphMostly Cloudy
10:50 AM44.6 °F37.4 °F76 %29.39 in6.2 miSW (220°)10.4 mphMostly Cloudy
11:50 AM46.0 °F38.0 °F64 %29.38 in31.0 miSSW (200°)12.7 mphPartly Cloudy
11:50 AM46.4 °F37.4 °F71 %29.36 in6.2 miSSW (200°)12.7 mphMostly Cloudy
12:50 PM46.4 °F39.2 °F76 %29.36 in6.2 miSSW (210°)11.5 mphMostly Cloudy
1:50 PM46.4 °F37.4 °F71 %29.36 in6.2 miSSW (200°)12.7 mphRainLight Rain Showers
2:50 PM44.0 °F39.0 °F76 %29.37 in25.0 miSSW (210°)4.6 mphSnowLight Snow Showers
2:50 PM44.6 °F39.2 °F81 %29.36 in6.2 miSSW (210°)4.6 mphMostly Cloudy
3:50 PM48.2 °F39.2 °F71 %29.36 in6.2 miWSW (240°)10.4 mphMostly Cloudy
4:50 PM46.4 °F39.2 °F76 %29.36 in6.2 miWest (260°)6.9 mphScattered Clouds
5:50 PM44.0 °F37.0 °F69 %29.38 in31.0 miWNW (290°)4.6 mphPartly Cloudy
5:50 PM44.6 °F37.4 °F76 %29.36 in6.2 miWNW (290°)4.6 mphScattered Clouds
6:50 PM39.2 °F33.8 °F81 %29.39 in6.2 miWest (260°)5.8 mphPartly Cloudy
7:50 PM35.6 °F32.0 °F87 %29.39 inWSW (250°)6.9 mphClear
8:50 PM37.0 °F33.0 °F82 %29.40 in25.0 miWSW (240°)2.3 mphClear
8:50 PM37.4 °F33.8 °F87 %29.39 inWSW (240°)2.3 mphClear
9:50 PM33.8 °F32.0 °F93 %29.39 inWest (280°)2.3 mphClear
10:50 PM30.2 °F26.6 °F86 %29.39 inWest (260°)8.1 mphClear
11:50 PM29.0 °F27.0 °F90 %29.41 in16.0 miNNW (340°)3.5 mphClear
11:50 PM30.2 °F26.6 °F86 %29.39 inNNW (340°)3.5 mphClear
Hourly data recorded from EGQL, located miles away from Leuchars, Scotland







STORIES FROM OUR PARTNERS